{"data":{"norad_id":60333,"epoch":"2026-09-21T08:55:44.022720Z","epoch_age_seconds":110243,"freshness":"FRESH","line1":"1 60333U 24136E   26264.37203730 -.00000550  00000+0 -51552-5 0  9990","line2":"2 60333  53.1602 245.3829 0001353  74.7818 285.3334 15.34391056119640","mean_motion":15.34391056,"eccentricity":0.0001353,"inclination_deg":53.1602,"raan_deg":245.3829,"arg_perigee_deg":74.7818,"mean_anomaly_deg":285.3334,"bstar":-5.1552e-6,"rev_number":11964,"period_min":93.848305122029,"perigee_km":461.80425450784,"apogee_km":463.65539307036,"semimajor_km":6840.8668237891,"source":"CELESTRAK","updated_at":"2026-09-22T09:00:49.219520Z"}}